AirNav   ATP
 
 1533 users online  

3G2 Grygla Municipal Airport-Mel Wilkens Field
Grygla, Minnesota, USA


FAA INFORMATION EFFECTIVE 01 FEBRUARY 2018

Location

FAA Identifier: 3G2
Lat/Long: 48-17-38.7000N / 095-37-33.5000W
48-17.645000N / 095-37.558333W
48.2940833 / -95.6259722
(estimated)
Elevation: 1177 ft. / 359 m (estimated)
Variation: 04E (1995)
From city: 1 mile SW of GRYGLA, MN
Time zone: UTC -6 (UTC -5 during Daylight Saving Time)
Zip code: 56727

Airport Operations

Airport use: Open to the public
Activation date: 02/2000
Control tower: no
ARTCC: MINNEAPOLIS CENTER
FSS: PRINCETON FLIGHT SERVICE STATION
NOTAMs facility: PNM (NOTAM-D service available)
Attendance: UNATNDD
Wind indicator: lighted
Segmented circle: no
Lights: SS-SR
Beacon: white-green (lighted land airport)
Operates sunset to sunrise.

Airport Communications

CTAF: 122.9

Nearby radio navigation aids

VOR radial/distance  VOR name  Freq  Var
TVFr051/26.2THIEF RIVER FALLS VOR/DME108.4008E
ROXr170/33.8ROSEAU VOR/DME108.8005E

Airport Services

Parking: tiedowns
Airframe service: NONE
Powerplant service: NONE
Bottled oxygen: NONE
Bulk oxygen: NONE

Runway Information

Runway 17/35

Dimensions: 3437 x 92 ft. / 1048 x 28 m
Surface: turf, in good condition
Runway edge lights: low intensity
Runway edge markings: RY 17/35 MARKED WITH YELLOW CONES.
RUNWAY 17  RUNWAY 35
Latitude: 48-17.926333N48-17.363500N
Longitude: 095-37.598000W095-37.518833W
Traffic pattern: leftleft

Airport Ownership and Management from official FAA records

Ownership: Publicly-owned
Owner: CITY OF GRYGLA
219 W BELTRAMI ST., P.O. BOX 76
GRYGLA, MN 56727
Phone 218-294-6292
Manager: ROCKY HAGEN
219 W BELTRAMI STREET, P.O. BOX 76
GRYGLA, MN 56727
Phone 218-294-6728
CELL: 218-689-3271

Airport Operational Statistics

Aircraft operations: avg 33/month *
50% transient general aviation
50% local general aviation
* for 12-month period ending 31 May 2017

Additional Remarks

ULTRALIGHT TRAFFIC ON & INVOF ARPT.
DEER ON & INVOF ARPT.
AIRPORT NOT PLOWED WINTER MONTHS.

Instrument Procedures

There are no published instrument procedures at 3G2.

Some nearby airports with instrument procedures:

KTVF - Thief River Falls Regional Airport (26 nm SW)
KROX - Roseau Municipal Airport/Rudy Billberg Field (34 nm N)
KRRT - Warroad International Memorial Airport (40 nm N)
KFSE - Fosston Municipal Airport (42 nm S)
D37 - Warren Municipal Airport (44 nm W)
 
Loc | Ops | Rwys | IFR | FBO | Links
Com | Nav | Svcs | Stats | Notes

AirNav Hotels Sweepstakes
 
Area around 3G2 (Grygla Municipal Airport-Mel Wilkens Field)
 
Road maps at: MapQuest Bing Google
 
Aerial photo
No photo
 
Sectional chart

 
Airport distance calculator
Flying to Grygla Municipal Airport-Mel Wilkens Field? Find the distance to fly.

From to 3G2

Sunrise and sunset
Times for 23-Feb-2018
 Local
(UTC-6)
 Zulu
(UTC)
Morning civil twilight06:4512:45
Sunrise07:1613:16
Sunset17:5623:56
Evening civil twilight18:2700:27

Current date and time
Zulu (UTC)  23-Feb-2018 20:35:34
Local (UTC-6)  23-Feb-2018 14:35:34
 
METAR
KTVF 
26nm SW 
231857Z AUTO 29010KT 10SM CLR M10/M15 A3018 RMK AO2 SLP247 T11001150 FZRANO
KROX 
33nm N 
232015Z AUTO 26009KT 10SM CLR M07/M13 A3013 RMK AO2
KRRT 
40nm N 
232015Z AUTO 23011KT 10SM CLR M07/M13 A3011 RMK AO2
KFSE 
43nm S 
232015Z AUTO 24008KT 10SM CLR M06/M14 A3017 RMK AO2
KVWU 
45nm E 
232015Z AUTO 25010KT 10SM SCT049 BKN070 OVC090 M04/M08 A3011 RMK AO2 P0001
KCKN 
48nm SW 
232015Z AUTO 29007KT 10SM CLR M09/M13 A3022 RMK AO2
KBDE 
48nm NE 
231953Z AUTO 25006KT 10SM CLR M04/M10 A3008 RMK AO2 SLP208 T10391100 PNO $
TAF
KTVF 
26nm SW 
231723Z 2318/2418 29008KT P6SM SCT120 FM240000 VRB05KT P6SM FEW250 FM241600 18009KT P6SM SCT250
NOTAMs
Click for the latest NOTAMs
NOTAMs are issued by the DoD/FAA and will open in a separate window not controlled by AirNav.

 

 
 

Would you like to see your business listed on this page?

 If your business provides an interesting product or service to pilots, flight crews, aircraft, or users of the Grygla Municipal Airport-Mel Wilkens Field, you should consider listing it here.  To start the listing process, click on the button below
 
Add a business
 

Other Pages about Grygla Municipal Airport-Mel Wilkens Field

PDF page(s) from the Minnesota Airport Directory
 
Update a link
 
Copyright © AirNav, LLC. All rights reserved. Privacy Policy  Contact